EJU15BJ EKCH-EDDB

Flight info

Callsign EJU15BJ
Flight time 0h 41m
Altitude 33000
Route SALLO M44 KOGIM M725 RODEP T280 KETAP KETAP1L
Aircraft A320/M-SDE2E3FGHIJ1RWXYZ/LB1

Departure

Time 2026-05-04 18:31
Airport Copenhagen Kastrup Airport (EKCH)

Arrival

Time 2026-05-04 19:12
Airport Berlin Brandenburg Airport (EDDB)
Time Latitude Longitude Altitude Speed Heading
2026-05-04 17:42 55.62528 12.65761 18 ft 0 kts 359°
2026-05-04 18:16 55.62509 12.65762 17 ft 4 kts 359°
2026-05-04 18:16 55.62487 12.65763 17 ft 2 kts 359°
2026-05-04 18:16 55.62461 12.65760 21 ft 4 kts 21°
2026-05-04 18:17 55.62443 12.65738 17 ft 4 kts 89°
2026-05-04 18:17 55.62444 12.65785 17 ft 4 kts 89°
2026-05-04 18:17 55.62444 12.65817 17 ft 0 kts 89°
2026-05-04 18:20 55.62445 12.65861 17 ft 10 kts 89°
2026-05-04 18:21 55.62446 12.65983 17 ft 9 kts 89°
2026-05-04 18:21 55.62482 12.66062 17 ft 8 kts 41°
2026-05-04 18:21 55.62516 12.66129 17 ft 8 kts 69°
2026-05-04 18:21 55.62481 12.66220 17 ft 10 kts 167°
2026-05-04 18:22 55.62431 12.66171 18 ft 8 kts 216°
2026-05-04 18:22 55.62370 12.66080 17 ft 13 kts 223°
2026-05-04 18:22 55.62304 12.65953 17 ft 15 kts 251°
2026-05-04 18:22 55.62298 12.65761 17 ft 16 kts 268°
2026-05-04 18:23 55.62295 12.65550 17 ft 18 kts 268°
2026-05-04 18:23 55.62292 12.65336 17 ft 15 kts 269°
2026-05-04 18:23 55.62280 12.65155 18 ft 15 kts 244°
2026-05-04 18:23 55.62302 12.65006 17 ft 13 kts 301°
2026-05-04 18:24 55.62352 12.64863 17 ft 8 kts 301°
2026-05-04 18:24 55.62339 12.64763 18 ft 10 kts 242°
2026-05-04 18:24 55.62306 12.64649 18 ft 11 kts 245°
2026-05-04 18:24 55.62300 12.64624 17 ft 0 kts 249°
2026-05-04 18:25 55.62299 12.64619 17 ft 2 kts 249°
2026-05-04 18:25 55.62293 12.64590 18 ft 2 kts 249°
2026-05-04 18:25 55.62292 12.64588 18 ft 0 kts 249°
2026-05-04 18:26 55.62292 12.64586 18 ft 2 kts 249°
2026-05-04 18:26 55.62270 12.64485 18 ft 12 kts 247°
2026-05-04 18:27 55.62212 12.64356 15 ft 14 kts 207°
2026-05-04 18:27 55.62160 12.64314 18 ft 6 kts 205°
2026-05-04 18:27 55.62098 12.64263 17 ft 14 kts 205°
2026-05-04 18:27 55.62006 12.64187 19 ft 11 kts 205°
2026-05-04 18:28 55.61956 12.64145 18 ft 4 kts 205°
2026-05-04 18:28 55.61953 12.64142 19 ft 0 kts 205°
2026-05-04 18:28 55.61938 12.64130 17 ft 2 kts 205°
2026-05-04 18:28 55.61884 12.64084 18 ft 11 kts 205°
2026-05-04 18:29 55.61817 12.64073 17 ft 11 kts 176°
2026-05-04 18:29 55.61754 12.64080 18 ft 16 kts 176°
2026-05-04 18:29 55.61660 12.64090 20 ft 11 kts 176°
2026-05-04 18:29 55.61609 12.64049 23 ft 0 kts 219°
2026-05-04 18:30 55.61609 12.64048 23 ft 0 kts 219°
2026-05-04 18:30 55.61560 12.63975 21 ft 33 kts 220°
2026-05-04 18:30 55.61179 12.63386 22 ft 107 kts 221°
2026-05-04 18:31 55.60468 12.62284 19 ft 162 kts 220°
2026-05-04 18:31 55.59565 12.60930 477 ft 171 kts 223°
2026-05-04 18:31 55.58661 12.59549 1233 ft 172 kts 224°
2026-05-04 18:31 55.57734 12.58109 1722 ft 189 kts 225°
2026-05-04 18:32 55.56668 12.56455 2072 ft 214 kts 221°
2026-05-04 18:32 55.55294 12.55059 2513 ft 242 kts 206°
2026-05-04 18:32 55.53653 12.53980 3154 ft 258 kts 201°
2026-05-04 18:32 55.51923 12.53013 4081 ft 263 kts 200°
2026-05-04 18:33 55.50173 12.52057 5062 ft 264 kts 200°
2026-05-04 18:33 55.48434 12.51084 6013 ft 266 kts 201°
2026-05-04 18:33 55.46640 12.50062 6927 ft 269 kts 199°
2026-05-04 18:33 55.44743 12.49864 7767 ft 283 kts 173°
2026-05-04 18:34 55.42927 12.51317 8590 ft 296 kts 143°
2026-05-04 18:34 55.41692 12.54263 9411 ft 308 kts 113°
2026-05-04 18:34 55.41029 12.57875 10192 ft 314 kts 108°
2026-05-04 18:34 55.40386 12.61692 10474 ft 337 kts 108°
2026-05-04 18:35 55.39717 12.65741 10999 ft 349 kts 107°
2026-05-04 18:35 55.39035 12.69878 11704 ft 355 kts 108°
2026-05-04 18:35 55.38338 12.74077 12437 ft 360 kts 108°
2026-05-04 18:35 55.37619 12.78325 13165 ft 365 kts 109°
2026-05-04 18:36 55.36878 12.82625 13868 ft 370 kts 109°
2026-05-04 18:36 55.36120 12.86975 14509 ft 374 kts 109°
2026-05-04 18:36 55.35355 12.91357 15157 ft 378 kts 109°
2026-05-04 18:36 55.34443 12.95742 15799 ft 379 kts 119°
2026-05-04 18:37 55.33089 12.99659 16432 ft 378 kts 131°
2026-05-04 18:37 55.31312 13.03027 17073 ft 376 kts 143°
2026-05-04 18:37 55.29201 13.05702 17708 ft 374 kts 155°
2026-05-04 18:37 55.26888 13.07787 18325 ft 375 kts 158°
2026-05-04 18:38 55.24500 13.09568 18872 ft 372 kts 170°
2026-05-04 18:38 55.21968 13.10446 19425 ft 371 kts 175°
2026-05-04 18:38 55.19415 13.11230 19988 ft 374 kts 175°
2026-05-04 18:38 55.16839 13.12005 20555 ft 377 kts 175°
2026-05-04 18:39 55.14244 13.12778 21110 ft 380 kts 175°
2026-05-04 18:39 55.11625 13.13559 21663 ft 383 kts 175°
2026-05-04 18:39 55.08985 13.14343 22215 ft 386 kts 175°
2026-05-04 18:39 55.06325 13.15130 22737 ft 389 kts 176°
2026-05-04 18:40 55.03651 13.15926 23308 ft 392 kts 176°
2026-05-04 18:40 55.00947 13.16738 23806 ft 395 kts 176°
2026-05-04 18:40 54.98232 13.17557 24255 ft 397 kts 176°
2026-05-04 18:40 54.95500 13.18380 24711 ft 400 kts 177°
2026-05-04 18:41 54.92754 13.19206 25155 ft 401 kts 178°
2026-05-04 18:41 54.89994 13.20032 25590 ft 403 kts 178°
2026-05-04 18:41 54.87223 13.20855 26025 ft 405 kts 178°
2026-05-04 18:41 54.84438 13.21677 26446 ft 407 kts 179°
2026-05-04 18:42 54.81638 13.22501 26849 ft 409 kts 179°
2026-05-04 18:42 54.78824 13.23332 27216 ft 411 kts 179°
2026-05-04 18:42 54.75997 13.24167 27602 ft 413 kts 179°
2026-05-04 18:42 54.73152 13.25007 27997 ft 415 kts 179°
2026-05-04 18:43 54.70297 13.25849 28376 ft 417 kts 180°
2026-05-04 18:43 54.67430 13.26695 28755 ft 419 kts 180°
2026-05-04 18:43 54.64549 13.27546 29134 ft 421 kts 180°
2026-05-04 18:43 54.61657 13.28399 29503 ft 423 kts 180°
2026-05-04 18:44 54.58745 13.29254 29857 ft 425 kts 180°
2026-05-04 18:44 54.56817 13.29817 30081 ft 426 kts 180°
2026-05-04 18:44 54.52897 13.30955 30420 ft 428 kts 179°
2026-05-04 18:44 54.49947 13.31814 30671 ft 431 kts 179°
2026-05-04 18:45 54.46980 13.32674 30931 ft 433 kts 179°
2026-05-04 18:45 54.44000 13.33539 31181 ft 435 kts 178°
2026-05-04 18:45 54.41010 13.34412 31461 ft 436 kts 178°
2026-05-04 18:45 54.38022 13.35280 31829 ft 436 kts 178°
2026-05-04 18:46 54.35031 13.36151 32187 ft 435 kts 178°
2026-05-04 18:46 54.32049 13.37021 32548 ft 434 kts 178°
2026-05-04 18:46 54.29071 13.37886 32886 ft 434 kts 178°
2026-05-04 18:47 54.23213 13.39601 32976 ft 417 kts 178°
2026-05-04 18:47 54.19412 13.40700 32977 ft 412 kts 178°
2026-05-04 18:48 54.13834 13.42279 32980 ft 411 kts 178°
2026-05-04 18:48 54.08194 13.43875 32980 ft 411 kts 178°
2026-05-04 18:49 54.02553 13.45490 32981 ft 411 kts 178°
2026-05-04 18:49 53.96924 13.47100 32622 ft 407 kts 178°
2026-05-04 18:49 53.94150 13.47894 32169 ft 402 kts 179°
2026-05-04 18:50 53.91404 13.48673 31728 ft 398 kts 179°
2026-05-04 18:50 53.88686 13.49439 31293 ft 394 kts 179°
2026-05-04 18:50 53.86000 13.50194 30866 ft 390 kts 179°
2026-05-04 18:50 53.83337 13.50946 30445 ft 386 kts 179°
2026-05-04 18:51 53.80698 13.51693 30030 ft 382 kts 179°
2026-05-04 18:51 53.78088 13.52469 29543 ft 380 kts 178°
2026-05-04 18:51 53.75497 13.53305 29067 ft 378 kts 178°
2026-05-04 18:51 53.72931 13.54170 28553 ft 375 kts 176°
2026-05-04 18:52 53.70383 13.55038 28106 ft 372 kts 176°
2026-05-04 18:52 53.67853 13.55896 27644 ft 369 kts 176°
2026-05-04 18:52 53.65343 13.56736 27190 ft 367 kts 176°
2026-05-04 18:52 53.62849 13.57559 26740 ft 364 kts 176°
2026-05-04 18:53 53.60370 13.58375 26286 ft 362 kts 176°
2026-05-04 18:53 53.57910 13.59184 25825 ft 359 kts 176°
2026-05-04 18:53 53.55461 13.59991 25353 ft 358 kts 176°
2026-05-04 18:53 53.53022 13.60792 24904 ft 356 kts 175°
2026-05-04 18:54 53.50596 13.61585 24464 ft 354 kts 175°
2026-05-04 18:54 53.48188 13.62369 24043 ft 352 kts 175°
2026-05-04 18:54 53.45793 13.63149 23610 ft 350 kts 175°
2026-05-04 18:54 53.43411 13.63927 23130 ft 348 kts 175°
2026-05-04 18:55 53.41043 13.64702 22673 ft 345 kts 175°
2026-05-04 18:55 53.36353 13.66228 21801 ft 341 kts 175°
2026-05-04 18:55 53.34039 13.66977 21384 ft 338 kts 175°
2026-05-04 18:56 53.31735 13.67722 20966 ft 336 kts 174°
2026-05-04 18:56 53.29446 13.68464 20560 ft 334 kts 174°
2026-05-04 18:56 53.27172 13.69199 20164 ft 332 kts 174°
2026-05-04 18:56 53.24911 13.69927 19774 ft 330 kts 174°
2026-05-04 18:57 53.22663 13.70649 19396 ft 328 kts 174°
2026-05-04 18:57 53.20431 13.71365 19029 ft 326 kts 174°
2026-05-04 18:57 53.18210 13.72080 18652 ft 324 kts 174°
2026-05-04 18:57 53.16001 13.72793 18298 ft 322 kts 174°
2026-05-04 18:58 53.13811 13.73502 17825 ft 319 kts 173°
2026-05-04 18:58 53.11637 13.74202 17283 ft 317 kts 173°
2026-05-04 18:58 53.09476 13.74896 16783 ft 316 kts 173°
2026-05-04 18:58 53.07321 13.75589 16426 ft 314 kts 173°
2026-05-04 18:59 53.05177 13.76278 16054 ft 313 kts 173°
2026-05-04 18:59 53.03047 13.76962 15701 ft 312 kts 173°
2026-05-04 18:59 53.00872 13.77657 15388 ft 310 kts 173°
2026-05-04 18:59 52.98804 13.78316 15053 ft 309 kts 173°
2026-05-04 19:00 52.96704 13.78984 14615 ft 306 kts 173°
2026-05-04 19:00 52.94617 13.79647 14156 ft 306 kts 173°
2026-05-04 19:00 52.92534 13.80309 13809 ft 304 kts 173°
2026-05-04 19:00 52.90453 13.80973 13428 ft 304 kts 173°
2026-05-04 19:01 52.88382 13.81630 13062 ft 302 kts 173°
2026-05-04 19:01 52.86322 13.82284 12695 ft 301 kts 173°
2026-05-04 19:01 52.84273 13.82934 12334 ft 299 kts 173°
2026-05-04 19:01 52.82238 13.83579 11980 ft 297 kts 173°
2026-05-04 19:02 52.80210 13.84221 11625 ft 296 kts 173°
2026-05-04 19:02 52.78195 13.84858 11273 ft 294 kts 173°
2026-05-04 19:02 52.76192 13.85493 10928 ft 292 kts 173°
2026-05-04 19:02 52.74200 13.86126 10577 ft 291 kts 173°
2026-05-04 19:03 52.72221 13.86751 10234 ft 289 kts 173°
2026-05-04 19:03 52.70253 13.87370 9902 ft 287 kts 173°
2026-05-04 19:03 52.68297 13.87984 9527 ft 285 kts 173°
2026-05-04 19:03 52.66357 13.88591 9093 ft 283 kts 173°
2026-05-04 19:04 52.64435 13.89195 8603 ft 281 kts 172°
2026-05-04 19:04 52.62520 13.89797 8189 ft 279 kts 172°
2026-05-04 19:04 52.60613 13.90398 7811 ft 278 kts 172°
2026-05-04 19:04 52.58726 13.90993 7421 ft 276 kts 172°
2026-05-04 19:05 52.56844 13.91587 7038 ft 274 kts 172°
2026-05-04 19:05 52.54962 13.91838 6651 ft 270 kts 184°
2026-05-04 19:05 52.53101 13.91667 6178 ft 267 kts 186°
2026-05-04 19:05 52.51253 13.91437 5580 ft 266 kts 186°
2026-05-04 19:06 52.49424 13.91114 4993 ft 263 kts 195°
2026-05-04 19:06 52.48312 13.90371 4713 ft 256 kts 212°
2026-05-04 19:06 52.46867 13.88829 4586 ft 241 kts 215°
2026-05-04 19:06 52.45516 13.87303 4431 ft 226 kts 215°
2026-05-04 19:07 52.44250 13.85844 4247 ft 219 kts 220°
2026-05-04 19:07 52.43307 13.84001 4120 ft 207 kts 244°
2026-05-04 19:07 52.42775 13.81861 3894 ft 199 kts 250°
2026-05-04 19:07 52.42296 13.79798 3627 ft 194 kts 250°
2026-05-04 19:08 52.41822 13.77761 3383 ft 189 kts 250°
2026-05-04 19:08 52.41354 13.75757 3137 ft 188 kts 250°
2026-05-04 19:08 52.40887 13.73761 2886 ft 187 kts 250°
2026-05-04 19:08 52.40421 13.71772 2638 ft 187 kts 250°
2026-05-04 19:09 52.39955 13.69785 2392 ft 187 kts 250°
2026-05-04 19:09 52.39488 13.67797 2136 ft 187 kts 250°
2026-05-04 19:09 52.39032 13.65855 1886 ft 177 kts 251°
2026-05-04 19:09 52.38601 13.64025 1668 ft 169 kts 251°
2026-05-04 19:10 52.38184 13.62254 1448 ft 164 kts 251°
2026-05-04 19:10 52.37915 13.61112 1301 ft 156 kts 251°
2026-05-04 19:10 52.37404 13.58984 1016 ft 149 kts 250°
2026-05-04 19:10 52.37035 13.57425 841 ft 146 kts 252°
2026-05-04 19:11 52.36677 13.55879 649 ft 145 kts 251°
2026-05-04 19:11 52.36311 13.54338 455 ft 145 kts 251°
2026-05-04 19:11 52.35948 13.52780 280 ft 144 kts 251°
2026-05-04 19:11 52.35601 13.51305 157 ft 132 kts 251°
2026-05-04 19:12 52.35325 13.50129 154 ft 87 kts 248°
2026-05-04 19:12 52.35086 13.49100 154 ft 38 kts 255°
2026-05-04 19:12 52.35089 13.48752 154 ft 23 kts 278°
2026-05-04 19:13 52.35098 13.48650 154 ft 7 kts 278°
2026-05-04 19:13 52.35107 13.48577 154 ft 7 kts 288°
2026-05-04 19:13 52.35155 13.48532 154 ft 11 kts
2026-05-04 19:13 52.35205 13.48641 154 ft 14 kts 70°
2026-05-04 19:14 52.35244 13.48800 154 ft 16 kts 68°
2026-05-04 19:14 52.35286 13.48980 154 ft 18 kts 69°
2026-05-04 19:14 52.35333 13.49177 154 ft 16 kts 69°
2026-05-04 19:14 52.35377 13.49364 154 ft 19 kts 69°
2026-05-04 19:15 52.35427 13.49571 154 ft 21 kts 68°
2026-05-04 19:15 52.35477 13.49787 154 ft 20 kts 69°
2026-05-04 19:15 52.35532 13.50007 154 ft 20 kts 68°
2026-05-04 19:15 52.35584 13.50233 154 ft 22 kts 68°
2026-05-04 19:16 52.35640 13.50472 154 ft 23 kts 69°
2026-05-04 19:16 52.35692 13.50689 155 ft 14 kts 68°
2026-05-04 19:16 52.35727 13.50814 154 ft 10 kts 45°
2026-05-04 19:16 52.35796 13.50809 154 ft 11 kts 337°
2026-05-04 19:17 52.35876 13.50765 154 ft 13 kts 353°
2026-05-04 19:17 52.35928 13.50873 155 ft 14 kts 70°
2026-05-04 19:17 52.35966 13.51028 155 ft 15 kts 68°
2026-05-04 19:17 52.36006 13.51198 155 ft 13 kts 69°
2026-05-04 19:18 52.36040 13.51275 155 ft 6 kts 349°
2026-05-04 19:18 52.36088 13.51251 155 ft 8 kts 338°
2026-05-04 19:18 52.36111 13.51236 155 ft 0 kts 339°